User: anonymous   Login
Location: Casteau
(50.5142°N, 4.0161°E)
Time: 04:28:59
(UTC+00:00)
Language:

Lacrosse 5 rocket - Orbit

View from above orbital plane
View from above orbital plane
View from above satellite
View from above satellite

Ground track
Ground track

The orbit data is extracted from the following two-line orbital elements,

1 28647U 05016B   20336.55522407 +.00000968 +00000-0 +72519-4 0  9994
2 28647 056.9968 280.8444 0129720 085.1850 276.3985 15.06151911085137
Epoch (UTC): 01 December 2020 13:19:31
Eccentricity: 0.0129720
inclination: 56.9968°
perigee height: 458 km
apogee height: 638 km
right ascension of ascending node: 280.8444°
argument of perigee: 85.1850°
revolutions per day: 15.06151911
mean anomaly at epoch: 276.3985°
orbit number at epoch: 8513

The dashed part of the orbit path shows where the satellite is in the earth's shadow,  

DLR